Location: Wiler
(46.4041°N, 7.7840°E)
Time: 13:55:32
(UTC+00:00)

STARLINK-1239 - Pass Details

Date: 09 April 2020
Orbit: 549 x 551 km, 53.0° (Epoch: 26 May)

Event Time Altitude Azimuth Distance (km) Brightness Sun altitude
Rises 20:03:22 0° 300° (WNW) 2,731 8.8 -18.8°
Reaches altitude 10° 20:05:36 10° 301° (WNW) 1,835 7.5 -19.1°
Maximum altitude 20:09:47 82° 29° (NNE) 563 3.5 -19.7°
Enters shadow 20:10:39 55° 108° (ESE) 667 3.6 -19.8°
